Temp
8 8 8 8 8 8 9 13 13 14 13 11 12 12 14 15 15 15 14 12 12 11 11 11 11 11 11 12 11 11 11 9 9 8 8 8 8 8 7 7 7 7 7 7 7 7 7 6 6
8 8 8 7 8 8 11 13 13 14 12 11 11 12 13 14 14 14 15 13 12 11 11 11 11 11 11 11 11 11 11 10 9 8 8 8 7 8 8 7 7 6 6 7 7 6 6 6 6
8 7 7 6 7 9 10 13 12 12 11 11 12 12 13 13 14 14 14 13 12 11 11 11 11 11 11 11 11 11 11 10 9 9 8 7 7 7 7 7 7 6 6 6 6 6 6 6 6
7 7 6 6 8 10 10 12 11 11 11 11 11 12 12 12 13 13 12 12 11 11 11 11 10 11 10 10 11 11 10 10 10 9 9 8 7 7 7 7 7 6 6 6 6 5 5 5 5
7 6 6 6 8 10 9 10 10 10 10 11 10 11 11 11 12 11 11 11 11 10 10 10 10 10 10 10 10 10 10 10 10 10 9 8 8 7 7 7 6 6 6 6 5 5 4 5 5
6 6 5 6 8 9 9 10 8 9 9 10 10 11 11 11 11 11 11 10 10 10 10 10 10 10 10 10 10 10 10 10 10 9 9 8 8 7 7 7 6 6 6 6 5 5 3 3 4
7 6 5 5 6 8 10 9 8 8 8 9 10 11 11 11 11 10 10 10 10 10 10 9 9 9 9 9 9 10 10 10 10 9 9 8 7 7 7 7 7 6 6 5 5 5 4 3 3
6 5 5 5 6 6 9 9 9 7 7 8 9 10 10 10 10 10 10 10 9 10 10 9 9 9 9 9 9 9 10 10 10 9 9 8 8 7 7 6 6 6 5 5 4 4 3 3 3
5 3 3 5 6 6 8 8 9 7 7 8 9 9 10 10 10 10 10 9 9 8 9 9 9 9 9 8 8 9 9 9 10 9 8 8 7 7 6 6 6 5 4 4 4 4 3 3 3
4 4 4 6 6 6 6 7 8 7 6 7 8 8 7 8 9 9 9 9 9 9 8 9 9 8 8 8 8 8 8 9 9 8 8 8 8 7 6 6 5 5 4 4 4 4 4 2 3
5 4 5 5 5 5 5 6 7 7 6 6 8 8 7 6 7 8 9 8 8 8 8 8 8 8 8 8 8 8 8 8 9 8 8 8 8 7 6 6 5 5 5 4 4 4 4 2 3
3 3 3 4 4 4 4 5 5 6 6 6 6 7 8 7 6 6 7 8 8 8 8 8 8 8 8 7 7 7 7 8 8 8 8 8 7 7 6 6 5 5 4 4 3 3 4 2 2
3 4 4 3 3 4 4 4 4 5 6 6 6 6 7 7 7 6 6 7 7 8 7 7 8 9 8 7 7 7 7 8 8 7 8 7 7 7 6 6 5 5 4 4 3 3 2 2 1
3 2 2 3 3 3 3 4 4 5 5 7 6 7 7 7 8 7 7 6 6 7 7 7 7 7 6 7 7 7 7 7 8 7 7 7 7 7 6 6 5 5 4 4 3 3 3 2 2
1 2 2 3 3 3 4 4 4 5 5 5 5 6 6 7 7 7 7 7 7 6 6 7 7 6 6 6 6 7 7 7 7 7 7 7 6 6 6 6 6 5 4 4 3 3 3 2 2
2 2 2 4 4 4 3 4 4 4 4 5 5 5 5 6 6 7 7 7 7 6 6 6 6 6 6 6 6 7 7 7 7 7 7 6 6 6 6 6 5 5 4 3 3 3 3 3 2
2 1 3 3 3 3 3 3 3 4 4 4 5 5 5 5 6 6 6 6 7 6 6 6 6 6 7 6 6 5 6 7 7 7 7 6 6 6 6 5 5 5 4 4 3 3 3 3 2
2 2 2 2 2 3 3 3 3 4 4 4 4 5 5 5 5 6 6 6 6 6 6 6 6 6 6 5 5 5 6 7 7 7 7 6 6 6 6 6 5 4 4 3 3 3 2 2 2
1 1 1 2 2 2 2 2 3 3 4 4 4 5 5 5 6 6 6 6 6 6 6 6 6 6 6 6 6 6 6 7 7 7 6 6 6 5 6 6 5 4 4 3 3 2 2 2 2
1 1 1 2 2 2 2 2 3 3 3 3 4 5 5 5 6 6 6 6 6 6 6 6 6 6 6 6 6 6 6 6 6 6 7 6 6 5 6 6 5 4 3 3 3 2 2 2 2
1 1 2 2 2 2 2 2 2 2 2 3 3 3 3 4 5 7 6 6 6 6 6 6 6 6 7 6 6 6 6 6 6 6 7 6 5 5 6 5 4 3 3 3 3 2 2 2 2
2 1 2 2 1 1 1 0 1 2 2 1 2 2 3 4 5 6 5 5 6 6 6 6 6 7 7 7 6 6 7 7 7 6 6 6 5 5 6 5 4 3 3 3 2 2 3 2 2
1 2 2 1 1 1 1 1 1 1 1 1 -0 1 3 4 5 6 5 5 5 6 6 7 7 7 7 7 6 6 7 7 6 6 6 6 5 6 5 5 5 4 3 2 2 2 2 2 2
1 1 1 1 1 -1 1 1 1 1 1 1 -0 1 3 3 4 6 5 5 5 6 6 7 7 7 7 6 6 7 7 7 7 6 6 6 5 6 5 5 4 4 3 2 2 1 2 2 2
1 1 -1 -2 -2 -2 2 1 1 1 1 -0 -1 -2 0 2 2 4 5 5 5 6 6 6 6 7 6 6 6 6 7 7 6 6 6 6 6 5 5 4 4 3 2 2 2 1 1 1 1
2 1 -0 -2 -2 0 0 0 1 -0 -1 -0 -1 -2 0 0 3 4 4 5 5 6 6 6 4 5 6 6 5 6 6 7 6 6 6 5 6 5 4 4 3 3 2 2 2 1 1 2 1
1 1 1 0 0 -1 0 1 -0 -1 -0 0 -1 -1 -1 -1 2 3 4 5 5 5 5 5 5 4 5 5 5 6 6 7 7 6 5 5 5 6 4 3 3 2 2 2 1 2 2 1 2
-0 1 0 -0 -2 -2 0 1 1 -0 -0 -0 -2 -1 -2 -0 1 3 4 4 4 4 5 5 5 4 4 4 4 5 6 7 6 6 5 5 5 5 4 3 2 2 1 1 1 1 1 1 1
-1 -1 -2 -2 -0 -2 -3 -0 1 -0 -0 -1 -2 -2 -1 0 1 2 3 4 4 4 4 4 4 3 3 3 4 5 6 6 6 5 5 5 5 5 4 3 3 1 1 1 0 1 1 1 1
-3 -4 -3 -4 -3 -2 -1 -1 0 -0 -0 -1 -1 -2 -2 -0 0 1 2 3 3 3 3 3 2 2 2 2 2 4 5 6 6 5 5 5 5 4 4 4 3 1 1 1 1 0 1 0 1
Height
3131 3130 3130 3131 3137 3131 3128 3127 3129 3129 3131 3133 3133 3133 3133 3130 3129 3131 3128 3129 3131 3134 3136 3137 3137 3138 3140 3141 3142 3142 3142 3141 3141 3142 3142 3142 3142 3142 3143 3143 3144 3145 3146 3147 3147 3147 3148 3149 3150
3127 3128 3127 3126 3128 3124 3119 3121 3124 3128 3130 3129 3130 3132 3131 3127 3125 3125 3125 3126 3128 3132 3134 3135 3135 3136 3136 3138 3140 3140 3140 3140 3139 3140 3140 3140 3140 3140 3141 3142 3143 3143 3144 3145 3145 3146 3147 3148 3149
3122 3123 3124 3122 3119 3112 3112 3118 3121 3123 3124 3125 3125 3128 3127 3124 3122 3121 3122 3122 3125 3129 3131 3132 3133 3133 3134 3135 3137 3138 3138 3138 3137 3137 3137 3137 3138 3139 3139 3140 3141 3141 3142 3143 3144 3144 3144 3146 3147
3118 3119 3119 3114 3108 3111 3113 3118 3119 3119 3122 3123 3124 3125 3123 3120 3121 3121 3119 3120 3123 3125 3127 3129 3130 3130 3131 3133 3134 3135 3136 3135 3134 3135 3134 3134 3134 3136 3136 3137 3137 3139 3141 3141 3141 3142 3143 3143 3144
3114 3112 3110 3105 3105 3108 3111 3115 3116 3115 3118 3119 3121 3121 3118 3115 3116 3117 3118 3119 3121 3123 3125 3126 3127 3128 3129 3130 3130 3132 3133 3133 3132 3132 3132 3131 3131 3132 3134 3134 3136 3137 3138 3139 3139 3139 3140 3141 3141
3109 3107 3103 3097 3099 3105 3109 3111 3111 3111 3113 3113 3114 3114 3114 3112 3111 3112 3114 3117 3118 3120 3122 3123 3123 3125 3126 3127 3127 3128 3129 3130 3129 3128 3128 3129 3129 3128 3130 3131 3132 3133 3133 3134 3136 3136 3136 3139 3139
3104 3102 3096 3097 3099 3100 3106 3108 3108 3107 3107 3108 3109 3107 3109 3107 3107 3107 3110 3113 3116 3116 3118 3119 3120 3121 3122 3123 3123 3125 3126 3126 3125 3124 3125 3125 3124 3125 3126 3127 3129 3131 3132 3133 3134 3133 3133 3133 3133
3100 3097 3090 3092 3095 3094 3102 3102 3103 3104 3101 3105 3108 3107 3106 3105 3103 3103 3103 3105 3109 3112 3114 3115 3116 3117 3119 3119 3120 3121 3122 3122 3122 3121 3121 3121 3121 3121 3122 3124 3127 3128 3129 3130 3131 3130 3129 3128 3127
3096 3090 3084 3089 3091 3090 3097 3097 3100 3100 3099 3101 3102 3101 3101 3101 3099 3097 3097 3098 3102 3105 3109 3111 3112 3114 3114 3115 3116 3117 3117 3118 3119 3118 3118 3118 3117 3117 3118 3120 3122 3123 3125 3125 3125 3124 3124 3112 3123
3088 3082 3081 3088 3090 3088 3090 3091 3092 3092 3092 3094 3097 3097 3098 3097 3095 3094 3094 3096 3096 3100 3103 3106 3108 3110 3110 3111 3112 3113 3114 3114 3115 3114 3114 3114 3113 3114 3114 3116 3117 3118 3119 3120 3121 3120 3119 3114 3120
3081 3075 3082 3083 3086 3086 3085 3086 3089 3085 3086 3091 3091 3092 3092 3094 3095 3092 3090 3091 3093 3096 3098 3101 3103 3105 3106 3107 3108 3109 3110 3111 3111 3110 3111 3111 3111 3110 3111 3111 3112 3113 3115 3116 3116 3116 3115 3113 3118
3075 3077 3080 3080 3082 3081 3081 3083 3080 3080 3081 3084 3085 3085 3085 3086 3087 3089 3087 3085 3086 3087 3092 3095 3097 3099 3101 3102 3104 3105 3106 3107 3107 3107 3108 3108 3107 3107 3107 3108 3109 3110 3112 3113 3113 3114 3110 3111 3116
3072 3074 3076 3077 3076 3076 3078 3075 3071 3070 3073 3075 3077 3078 3077 3079 3080 3081 3081 3083 3082 3080 3083 3085 3091 3093 3094 3096 3098 3100 3102 3103 3103 3104 3104 3104 3105 3104 3104 3104 3105 3108 3109 3111 3111 3109 3108 3110 3114
3070 3070 3070 3072 3071 3071 3072 3067 3066 3067 3070 3068 3069 3069 3072 3071 3072 3073 3073 3073 3076 3076 3076 3080 3082 3084 3085 3089 3092 3095 3097 3098 3099 3100 3100 3102 3101 3101 3101 3101 3102 3104 3105 3107 3108 3108 3111 3112 3112
3065 3063 3064 3066 3066 3064 3069 3055 3059 3063 3064 3061 3060 3059 3059 3060 3062 3063 3065 3066 3067 3069 3071 3073 3076 3077 3079 3083 3086 3089 3092 3093 3094 3095 3096 3098 3097 3097 3097 3097 3098 3100 3102 3103 3104 3106 3108 3110 3112
3063 3059 3058 3061 3064 3064 3066 3044 3054 3056 3054 3052 3051 3050 3050 3049 3049 3050 3053 3055 3058 3060 3061 3067 3070 3072 3073 3076 3080 3082 3086 3088 3089 3090 3091 3093 3092 3092 3093 3093 3093 3095 3097 3098 3099 3102 3105 3106 3110
3060 3054 3053 3056 3060 3057 3057 3049 3046 3048 3048 3045 3044 3042 3042 3041 3041 3041 3044 3043 3046 3050 3053 3056 3062 3066 3069 3071 3074 3077 3080 3082 3084 3085 3086 3088 3088 3088 3088 3088 3089 3089 3091 3093 3095 3097 3101 3104 3107
3053 3052 3051 3051 3055 3054 3047 3045 3042 3044 3042 3039 3038 3038 3036 3035 3034 3036 3036 3037 3037 3040 3043 3047 3053 3058 3063 3065 3068 3071 3072 3076 3077 3080 3082 3083 3083 3083 3082 3082 3084 3084 3086 3087 3089 3092 3095 3100 3104
3051 3049 3049 3045 3048 3048 3045 3040 3033 3036 3034 3032 3030 3030 3028 3026 3026 3028 3029 3029 3029 3031 3034 3038 3044 3050 3054 3057 3061 3063 3067 3070 3072 3074 3076 3077 3078 3078 3076 3077 3077 3078 3080 3082 3085 3087 3091 3093 3096
3046 3047 3044 3040 3043 3044 3038 3029 3028 3027 3024 3024 3022 3020 3019 3016 3016 3016 3018 3021 3022 3023 3026 3030 3035 3042 3047 3051 3053 3058 3061 3065 3068 3070 3070 3072 3072 3072 3071 3070 3071 3072 3074 3076 3079 3082 3085 3087 3089
3045 3044 3042 3041 3040 3036 3034 3024 3020 3020 3019 3017 3016 3014 3009 3006 3005 3006 3007 3010 3015 3015 3018 3022 3027 3034 3038 3043 3046 3052 3055 3059 3061 3064 3066 3067 3067 3065 3065 3064 3064 3065 3067 3071 3074 3077 3078 3080 3081
3039 3042 3040 3039 3038 3029 3027 3022 3016 3014 3010 3007 3007 3002 3000 2997 2996 2995 2996 2998 3002 3008 3012 3014 3019 3026 3031 3035 3041 3046 3050 3053 3057 3061 3061 3061 3061 3059 3059 3058 3058 3060 3063 3066 3069 3071 3073 3073 3075
3036 3038 3036 3034 3032 3029 3015 3022 3005 3010 3003 2999 2995 2995 2992 2990 2988 2987 2989 2991 2995 3000 3004 3007 3013 3019 3024 3030 3036 3041 3044 3048 3052 3055 3056 3056 3056 3054 3054 3053 3052 3055 3058 3061 3063 3065 3066 3067 3067
3033 3032 3031 3029 3029 3024 3014 3015 3002 3003 3001 2997 2993 2989 2988 2985 2981 2983 2983 2985 2989 2995 2999 3002 3008 3014 3020 3025 3030 3035 3039 3042 3046 3049 3050 3051 3051 3050 3049 3048 3049 3051 3053 3056 3058 3059 3060 3061 3063
3029 3029 3029 3028 3024 3019 3013 3010 3005 3003 3001 2996 2992 2985 2982 2982 2979 2979 2979 2981 2985 2990 2995 2998 3003 3010 3016 3021 3025 3028 3033 3037 3040 3042 3044 3046 3046 3045 3043 3043 3045 3047 3049 3051 3052 3053 3054 3054 3058
3019 3024 3026 3024 3020 3012 3012 3005 3001 3000 2998 2993 2986 2982 2978 2978 2975 2976 2977 2979 2983 2986 2991 2994 2999 3004 3011 3016 3019 3021 3027 3031 3034 3037 3039 3040 3040 3039 3037 3038 3040 3042 3044 3045 3045 3044 3046 3048 3051
3017 3017 3020 3018 3016 3013 3006 3002 2999 3000 2995 2988 2984 2979 2976 2975 2975 2974 2975 2976 2979 2984 2986 2991 2995 3000 3005 3010 3012 3016 3022 3025 3028 3032 3034 3035 3035 3033 3033 3034 3036 3036 3037 3037 3035 3035 3038 3043 3046
3015 3018 3017 3016 3016 3009 2999 2998 2998 2996 2992 2988 2984 2976 2977 2974 2971 2970 2971 2973 2976 2980 2981 2985 2988 2992 2998 3004 3007 3011 3016 3020 3024 3026 3030 3031 3030 3028 3029 3030 3030 3031 3031 3030 3029 3029 3033 3036 3043
3012 3013 3014 3013 3010 3007 3003 2997 2997 2995 2991 2990 2984 2979 2975 2971 2968 2967 2967 2971 2972 2974 2977 2981 2984 2986 2991 2996 3001 3005 3010 3014 3019 3022 3024 3026 3026 3024 3025 3025 3025 3026 3025 3026 3024 3026 3029 3032 3038
3015 3013 3012 3011 3006 3003 2999 2992 2995 2993 2990 2988 2985 2982 2977 2971 2967 2965 2965 2967 2968 2971 2973 2974 2976 2978 2973 2989 2994 2998 3004 3009 3012 3017 3019 3021 3021 3021 3021 3021 3021 3022 3022 3023 3022 3023 3027 3031 3035
Wind_Speed
18 17 18 18 11 11 17 21 12 9 11 6 10 12 17 24 18 18 15 6 10 16 14 14 12 9 9 13 9 8 10 12 16 17 16 16 14 13 15 16 16 14 11 11 11 14 15 15 14
20 20 20 19 15 21 26 21 17 8 9 8 8 12 18 24 23 25 27 18 7 14 15 13 12 10 10 14 11 9 10 11 13 17 18 18 17 14 16 18 17 14 12 13 14 15 16 16 16
21 21 22 15 25 37 28 18 12 15 14 10 11 19 22 24 26 25 25 25 19 13 17 15 13 11 10 14 14 12 10 14 13 14 17 20 19 17 17 18 18 17 16 16 15 16 17 17 18
22 23 25 27 30 25 25 8 8 10 9 4 9 17 16 20 23 27 27 21 14 16 17 16 15 14 13 13 12 13 12 14 13 14 16 19 20 20 19 20 20 19 18 18 17 18 18 18 19
23 28 31 31 36 33 30 19 14 16 14 12 14 24 20 20 23 20 24 19 19 19 18 18 20 17 15 13 13 14 13 11 12 12 16 19 20 21 22 22 21 20 20 21 19 18 17 19 19
25 29 26 37 37 30 23 15 14 12 15 20 23 23 25 23 25 25 23 22 20 19 24 24 23 18 17 14 12 12 12 12 11 13 16 18 20 22 24 25 24 24 25 25 22 26 24 21 18
25 32 37 37 33 30 18 13 14 16 24 19 20 22 26 25 20 21 21 22 23 25 22 23 21 18 17 14 12 11 11 12 10 12 16 17 20 22 24 27 25 25 25 23 23 33 30 26 23
24 32 40 39 35 38 24 23 21 17 25 18 14 21 19 18 23 25 29 25 23 24 27 23 22 20 18 16 14 12 10 12 11 11 15 17 19 20 22 24 23 25 24 26 24 26 38 31 25
24 36 40 39 35 36 26 25 23 22 25 17 10 9 22 22 21 25 30 30 27 23 22 26 22 25 22 20 16 14 12 11 13 11 13 16 18 20 20 22 22 25 25 27 31 29 21 29 26
30 39 41 35 32 32 28 25 27 27 26 23 19 1 6 12 22 27 27 31 32 28 23 24 25 27 26 23 19 16 13 12 13 12 13 17 17 18 19 21 24 24 24 24 26 30 26 31 28
33 42 35 33 30 29 30 27 25 32 33 27 24 16 9 6 15 23 28 29 29 28 27 27 30 30 31 27 23 18 15 14 14 12 13 16 17 18 18 19 22 22 21 22 23 25 23 29 27
31 32 31 29 25 25 27 21 28 33 36 34 33 28 25 20 13 20 25 31 31 31 30 27 29 29 34 32 28 23 18 16 13 13 12 15 17 18 17 19 20 20 18 19 20 21 17 31 28
27 28 27 25 24 27 29 35 37 38 35 39 41 39 35 32 27 21 21 24 28 35 31 30 37 41 39 35 33 27 21 18 14 12 12 15 17 17 18 18 18 18 17 17 16 13 7 32 26
17 21 25 28 29 32 32 40 38 40 37 39 43 47 44 41 39 34 29 25 28 33 37 37 40 38 33 27 35 30 24 20 15 12 11 14 16 17 17 19 19 18 17 16 16 17 14 16 16
24 26 30 31 31 34 32 46 42 40 41 44 43 43 43 49 49 46 42 39 33 30 32 36 33 35 30 25 25 32 26 22 17 15 13 15 16 18 18 19 20 20 18 18 21 19 20 22 19
21 26 30 27 23 25 22 45 30 26 30 35 30 25 25 29 30 36 39 49 44 37 38 38 33 30 29 31 25 29 29 25 21 18 15 17 17 19 20 20 21 20 20 20 22 23 24 24 25
27 32 33 32 15 17 20 31 30 26 25 32 30 30 30 33 32 31 32 24 46 46 48 44 38 34 32 30 29 27 31 28 24 21 18 18 19 20 21 19 21 23 22 21 25 26 27 25 24
21 20 23 24 20 21 32 37 39 35 33 32 34 31 35 37 37 30 25 32 24 39 54 48 40 39 38 34 31 33 30 30 28 23 20 19 20 22 21 20 21 23 24 23 27 27 30 28 26
18 21 27 27 23 27 33 40 38 34 35 37 35 36 35 44 38 37 32 27 34 32 35 42 42 36 39 37 31 31 31 30 28 24 21 21 21 22 23 23 25 25 24 23 25 28 29 30 29
16 24 30 32 27 28 37 41 39 36 36 35 37 35 40 34 32 33 41 38 30 34 35 39 42 36 41 37 34 24 30 27 29 26 24 23 22 24 25 26 26 27 24 23 26 27 29 28 28
20 23 26 32 32 35 34 42 43 36 35 37 36 39 40 42 36 32 33 41 36 33 36 44 41 37 41 37 32 27 26 29 31 31 25 22 23 24 25 27 25 26 25 25 27 26 25 27 29
25 21 25 26 27 28 22 18 38 35 43 38 32 37 35 35 37 30 26 32 43 38 34 38 39 39 41 35 35 28 25 31 30 24 22 23 22 24 26 25 23 26 26 25 25 23 26 28 30
22 22 26 24 27 30 43 18 31 34 21 25 12 23 23 31 31 26 27 31 34 39 31 30 34 39 35 34 35 27 26 29 27 28 24 21 21 23 24 21 21 26 27 25 20 22 25 23 30
20 23 24 27 26 15 36 18 14 12 21 27 20 16 21 22 17 28 26 30 31 35 27 21 34 36 33 34 29 29 29 29 30 29 23 19 20 22 21 20 21 23 25 25 22 17 22 32 38
24 21 5 4 1 7 13 11 17 29 27 29 48 31 14 18 9 24 25 30 30 32 30 25 27 32 31 28 28 26 28 29 30 29 23 19 19 20 17 17 20 23 24 26 28 29 28 30 33
25 26 10 6 4 11 24 9 9 16 14 25 25 20 18 18 11 14 21 28 25 25 27 33 33 34 29 27 28 26 29 31 32 27 22 18 19 17 14 17 21 23 25 25 31 29 29 37 37
20 22 21 25 28 12 11 13 15 17 26 38 22 12 11 8 17 22 21 26 23 21 22 28 30 30 32 30 26 29 30 29 29 26 21 18 19 12 14 18 21 21 22 25 27 27 20 35 37
8 15 9 8 3 5 6 8 10 11 15 16 18 8 19 14 10 18 22 21 21 22 25 29 33 35 32 29 29 29 30 25 26 25 21 17 18 10 13 15 18 20 21 22 19 26 25 34 34
15 15 15 19 17 4 4 5 11 14 17 14 15 21 21 16 10 11 17 21 17 19 24 28 35 35 33 32 30 32 30 25 24 23 20 18 16 10 12 13 13 17 18 19 17 15 23 28 34
21 16 12 7 6 16 19 21 22 14 18 19 13 18 19 16 15 8 11 17 16 16 17 23 28 39 28 33 30 30 28 27 22 23 22 19 13 10 11 12 14 17 18 18 16 22 22 25 25
Wind_Direction
248 237 239 239 232 223 238 264 272 283 228 328 320 268 271 263 246 236 248 264 232 185 209 216 213 220 256 279 293 307 300 256 248 249 254 252 259 248 233 230 227 228 228 230 224 218 216 215 209
244 240 238 233 227 223 249 267 255 211 283 294 292 269 265 257 248 241 244 247 237 221 209 217 216 214 249 273 285 304 321 280 258 251 254 252 253 251 238 231 227 224 220 224 219 215 215 215 213
238 235 236 222 233 233 244 270 273 241 252 309 291 264 261 252 254 248 250 257 253 237 217 221 226 228 245 270 283 296 320 308 271 260 256 255 251 250 243 234 228 228 225 227 222 219 218 216 216
234 233 232 230 235 252 256 258 267 268 221 237 282 270 258 250 246 257 266 252 220 215 220 230 241 247 254 266 277 289 309 309 283 266 260 253 245 245 244 237 233 231 229 230 229 222 219 214 213
229 232 229 237 244 254 262 272 270 270 287 291 297 266 260 267 268 257 258 252 241 226 234 250 256 255 257 256 272 285 296 300 291 285 268 254 248 242 241 237 235 232 231 231 229 227 215 213 212
225 232 234 238 251 260 265 252 265 280 302 308 301 279 254 256 250 243 237 254 255 248 252 258 258 250 252 250 263 274 288 288 279 287 277 257 251 244 241 238 234 232 230 230 229 232 216 210 212
237 235 240 248 257 258 260 220 254 280 297 298 317 265 244 241 239 247 251 245 247 259 264 254 245 243 244 237 242 258 277 286 293 291 286 272 256 251 246 243 242 242 243 241 238 237 239 204 205
247 242 243 247 253 262 261 245 240 274 286 295 322 280 230 232 246 256 260 254 232 251 263 259 243 243 241 236 237 246 264 280 301 297 292 281 265 258 252 246 245 246 243 242 247 267 256 214 201
241 237 244 248 253 259 267 258 223 258 287 273 295 287 267 260 247 250 253 251 241 236 237 254 261 249 241 237 239 244 256 272 294 293 292 284 268 260 252 248 244 246 241 244 246 274 232 193 199
233 241 249 262 266 270 271 264 247 265 276 267 251 330 6 291 270 261 258 260 254 250 243 246 257 248 243 238 236 241 248 266 283 288 294 288 275 265 254 245 243 244 242 252 250 266 278 208 198
242 248 259 264 274 282 285 272 248 263 274 279 263 233 227 272 267 268 262 263 267 266 256 244 250 247 244 242 237 240 246 262 276 284 292 286 283 270 257 246 244 247 249 250 257 261 289 201 197
244 249 258 268 269 266 272 282 269 262 274 278 268 253 237 241 245 254 264 269 266 264 265 250 250 249 243 239 238 238 244 257 270 281 291 286 285 269 254 246 243 241 245 246 253 257 277 206 198
247 257 258 265 269 268 279 277 277 266 267 271 276 261 248 241 243 241 239 254 264 264 262 266 255 250 255 246 236 236 242 253 263 272 288 287 285 276 260 248 242 237 235 232 245 254 218 213 202
264 270 273 266 263 266 271 267 264 264 265 267 271 269 256 255 245 243 237 235 248 260 259 261 264 257 252 242 232 232 239 250 260 262 281 285 290 287 272 258 249 240 230 230 229 216 223 197 204
257 265 260 258 259 261 268 264 263 271 271 274 276 272 267 254 251 248 243 243 239 248 254 258 258 255 251 239 238 229 235 247 257 256 272 282 292 293 281 264 256 247 234 228 222 218 218 215 213
248 255 268 273 273 276 275 274 274 279 284 276 271 265 266 260 248 245 248 246 237 237 248 253 244 244 247 243 237 230 231 244 253 254 267 278 290 298 283 268 260 252 243 224 227 216 219 217 219
256 263 269 281 270 297 294 291 290 289 290 275 274 269 269 274 266 259 248 247 236 236 238 245 240 242 246 241 244 241 234 239 250 253 262 271 285 298 289 273 263 251 237 230 216 225 219 222 232
257 268 285 286 293 298 290 285 279 275 281 278 268 272 266 263 262 251 250 241 239 239 238 240 243 245 237 237 239 238 235 235 246 253 259 267 279 294 294 279 265 252 232 227 225 224 215 225 230
265 273 281 289 304 299 288 291 290 290 281 274 275 264 272 265 263 257 245 237 237 234 238 240 235 237 232 229 233 234 234 239 245 253 259 265 275 289 294 281 268 248 232 231 220 220 228 232 229
270 276 282 296 296 295 293 294 290 290 289 283 276 267 268 281 266 260 250 237 234 235 235 234 235 236 235 232 229 244 235 246 244 249 259 264 273 288 292 284 267 241 228 226 224 223 230 236 235
274 277 284 286 296 290 291 290 287 293 294 290 284 285 281 273 273 253 247 232 230 228 237 234 235 236 229 230 225 238 242 239 232 244 261 267 273 289 290 282 258 228 231 233 235 232 239 240 247
267 267 274 283 292 295 301 291 295 304 309 309 298 290 287 272 271 249 245 232 226 228 237 240 231 228 225 227 223 237 254 244 237 246 252 262 277 288 287 272 242 226 229 234 235 240 243 234 233
275 281 283 284 288 290 286 270 283 303 315 341 323 279 278 281 265 248 245 239 229 225 231 237 223 222 226 225 221 238 254 239 232 240 250 262 280 286 279 258 239 225 226 226 232 246 249 240 235
276 279 276 279 279 280 281 263 308 292 316 308 311 275 264 271 251 246 242 241 229 226 222 222 224 226 221 214 226 244 253 234 234 243 249 260 276 280 268 246 229 222 222 220 228 248 251 247 217
255 268 315 307 202 237 311 327 283 289 293 291 310 316 266 248 247 229 234 236 234 230 222 211 218 216 215 223 235 250 233 230 237 240 246 258 275 274 256 239 230 227 229 236 243 251 265 245 216
251 240 206 243 241 288 305 268 281 307 316 334 309 326 265 216 241 239 236 231 234 243 232 223 217 211 217 232 235 234 227 235 239 240 242 258 271 269 256 239 232 232 238 243 251 260 246 218 220
235 218 249 249 268 287 267 268 287 311 317 338 337 322 349 315 224 246 237 230 233 237 223 220 223 224 224 233 233 226 228 236 234 235 238 257 266 269 253 238 236 236 242 247 265 247 235 221 229
258 255 246 253 279 250 257 280 290 346 346 341 341 318 348 342 279 242 232 229 232 232 230 226 221 219 222 227 227 225 225 230 232 231 239 259 261 259 253 245 241 244 242 249 255 224 221 213 211
296 287 302 294 251 245 288 252 288 332 336 328 325 349 345 342 313 266 245 227 228 228 228 229 226 222 220 220 223 223 223 223 231 230 240 255 251 248 250 253 245 243 244 250 233 213 222 210 214
294 292 300 288 322 297 273 274 285 297 311 300 304 323 339 348 346 304 258 235 222 226 225 221 215 218 222 211 216 220 221 222 224 234 241 251 244 240 249 253 258 245 236 234 239 212 218 209 214